Lewistown, MT

2:14 PM MDT on June 26, 2017 (GMT -0600)
Lewistown Municipal

Weather History for KLWT - November, 2013

Change the Weather History Date:

Friday, November 1, 2013

  Actual Average Record
Temperature  
Mean Temperature 38 °F 38 °F  
Max Temperature 50 °F 50 °F 77 °F (1947)
Min Temperature 26 °F 26 °F -7 °F (1951)
Degree Days  
Heating Degree Days 27 27  
Month to date heating degree days 27 27  
Since 1 July heating degree days 1029 1165  
Cooling Degree Days 0 0  
Month to date cooling degree days 0 0  
Year to date cooling degree days 277 210  
Moisture  
Dew Point 24 °F    
Average Humidity 59    
Maximum Humidity 81    
Minimum Humidity 36    
Precipitation  
Precipitation 0.00 in 0.02 in 0.44 in (1967)
Month to date precipitation 0.00 0.02  
Year to date precipitation 21.48 15.50  
Snow  
Snow 0.00 in - - ()
Snow Depth 0.00 in    
Sea Level Pressure  
Sea Level Pressure 30.10 in    
Wind  
Wind Speed 9 mph (West)    
Max Wind Speed 20 mph    
Max Gust Speed 28 mph    
Visibility 10 miles    
Events      
T = Trace of Precipitation, MM = Missing Value Source: NWS Daily Summary

Daily Weather History Graph

Daily Weather History Graph

Search for Another Location

Airport or City:

Trip Planner

Search our weather history database for the weather conditions in past years. The results will help you decide how hot, cold, wet, or windy it might be!

Date:

Astronomy

Nov. 01, 2013 Rise Set
Actual Time 8:01 AM MDT 6:01 PM MDT
Civil Twilight 7:29 AM MDT 6:32 PM MDT
Nautical Twilight 6:53 AM MDT 7:08 PM MDT
Astronomical Twilight 6:17 AM MDT 7:44 PM MDT
Moon 5:50 AM MDT (11/1) 5:01 PM MDT (11/1)
Length of Visible Light 11h 03m
Length of Day
9h 59m
Waning Crescent, 4% of the Moon is Illuminated
Nov 1
Waning Crescent
Nov 3
New
Nov 9
First Quarter
Nov 17
Full
Nov 25
Last Quarter

Hourly Weather History & Observations

Time (MDT) Temp. Windchill Dew Point Humidity Pressure Visibility Wind Dir Wind Speed Gust Speed Precip Events Conditions
12:54 AM 42.1 °F 33.6 °F 26.1 °F 53% 29.95 in 10.0 mi West 18.4 mph 34.5 mph N/A   Overcast
1:54 AM 41.0 °F 33.1 °F 25.0 °F 53% 29.97 in 10.0 mi WNW 15.0 mph 24.2 mph N/A   Overcast
2:54 AM 39.9 °F 32.5 °F 26.1 °F 58% 30.01 in 10.0 mi NW 12.7 mph 23.0 mph N/A   Overcast
3:54 AM 39.9 °F 31.4 °F 25.0 °F 55% 30.03 in 10.0 mi WNW 16.1 mph 23.0 mph N/A   Overcast
4:54 AM 39.0 °F 31.0 °F 25.0 °F 57% 30.06 in 10.0 mi WNW 13.8 mph 18.4 mph N/A   Overcast
5:54 AM 37.9 °F 32.1 °F 25.0 °F 60% 30.09 in 10.0 mi WNW 8.1 mph - N/A   Overcast
6:54 AM 33.1 °F 28.7 °F 24.1 °F 70% 30.12 in 10.0 mi South 4.6 mph - N/A   Scattered Clouds
7:54 AM 27.0 °F 18.0 °F 21.9 °F 81% 30.16 in 10.0 mi SSW 9.2 mph - N/A   Clear
8:54 AM 32.0 °F 24.8 °F 24.1 °F 73% 30.16 in 10.0 mi SSW 8.1 mph - N/A   Clear
9:54 AM 39.0 °F 32.8 °F 24.1 °F 55% 30.15 in 10.0 mi SW 9.2 mph - N/A   Clear
10:54 AM 43.0 °F 38.8 °F 24.1 °F 47% 30.14 in 10.0 mi Variable 6.9 mph - N/A   Partly Cloudy
11:54 AM 46.0 °F 41.9 °F 26.1 °F 46% 30.13 in 10.0 mi NW 8.1 mph - N/A   Overcast
12:54 PM 46.9 °F - 25.0 °F 42% 30.10 in 10.0 mi WNW 11.5 mph 19.6 mph N/A   Scattered Clouds
1:54 PM 46.9 °F - 24.1 °F 41% 30.09 in 10.0 mi WNW 11.5 mph 17.3 mph N/A   Mostly Cloudy
2:54 PM 50.0 °F - 24.1 °F 36% 30.08 in 10.0 mi NW 10.4 mph 16.1 mph N/A   Mostly Cloudy
3:54 PM 50.0 °F - 24.1 °F 36% 30.07 in 10.0 mi NW 11.5 mph 21.9 mph N/A   Scattered Clouds
4:54 PM 48.9 °F - 24.1 °F 38% 30.08 in 10.0 mi WNW 15.0 mph 20.7 mph N/A   Partly Cloudy
5:54 PM 43.0 °F 38.8 °F 25.0 °F 49% 30.11 in 10.0 mi West 6.9 mph - N/A   Clear
6:54 PM 36.0 °F - 24.1 °F 62% 30.14 in 10.0 mi Calm Calm - N/A   Clear
7:54 PM 33.1 °F 28.7 °F 24.1 °F 70% 30.18 in 10.0 mi WSW 4.6 mph - N/A   Clear
8:54 PM 30.0 °F 25.2 °F 23.0 °F 75% 30.17 in 10.0 mi WSW 4.6 mph - N/A   Clear
9:54 PM 35.1 °F 30.1 °F 24.1 °F 64% 30.14 in 10.0 mi WNW 5.8 mph - N/A   Clear
10:54 PM 32.0 °F 28.7 °F 24.1 °F 73% 30.14 in 10.0 mi WNW 3.5 mph - N/A   Clear
11:54 PM 30.9 °F 25.2 °F 23.0 °F 72% 30.13 in 10.0 mi WNW 5.8 mph - N/A   Clear